Theta_e
338 337 335 334 332 334 335 336 335 334 334 333 332 332 331 334 334 334 334 335 335 335 336 341 338 339 339 339 338 336 335 336 336 335 335 334 336 332 329 330 333 334
337 336 335 335 336 335 335 335 334 333 333 334 334 333 334 333 333 333 332 333 334 334 335 336 340 339 338 338 339 337 336 337 337 336 336 337 336 336 334 330 331 337
337 336 335 335 336 335 335 335 335 334 333 335 335 334 333 334 333 332 332 332 331 331 334 335 336 339 339 339 338 338 337 338 338 338 337 334 334 336 338 338 338 336
336 334 334 336 336 334 334 334 334 334 335 333 333 333 333 333 333 332 332 330 330 331 334 334 333 333 332 335 338 337 338 338 338 338 336 335 336 336 337 335 335 334
335 335 335 336 335 334 334 333 333 333 332 332 332 332 331 332 331 330 331 331 331 331 332 333 333 333 332 332 332 334 336 337 336 337 335 333 336 335 336 335 333 332
334 332 332 331 332 332 332 332 331 332 331 331 331 330 330 331 330 329 329 329 329 329 329 331 331 332 333 331 331 332 333 333 334 334 332 332 332 333 333 333 331 331
332 333 332 331 332 332 332 332 332 332 331 331 329 329 330 330 329 329 327 328 327 327 327 329 329 331 332 331 331 331 334 332 331 332 330 332 331 332 332 332 330 330
333 333 332 331 332 332 331 331 331 331 332 330 330 329 329 327 328 329 327 327 326 325 326 327 328 328 330 331 329 330 331 333 332 329 327 326 328 326 328 331 331 331
330 331 330 331 331 331 331 330 331 331 330 330 329 328 329 328 328 325 325 325 326 326 326 327 328 328 330 329 329 328 327 328 328 327 326 326 326 326 326 332 331 330
330 328 331 330 330 331 332 332 330 330 329 329 328 327 327 329 326 324 323 326 326 326 327 327 327 329 329 327 326 326 325 325 326 327 326 326 326 324 323 325 327 329
330 331 331 330 330 330 331 331 331 329 329 328 328 328 327 326 323 324 324 325 327 325 325 326 326 327 326 325 326 326 325 325 325 324 326 324 325 323 326 323 324 324
330 330 330 329 328 330 331 331 330 329 329 331 327 327 326 324 323 323 322 323 323 324 323 323 324 325 325 325 325 325 325 325 325 325 324 324 324 323 322 324 324 323
329 328 328 329 330 330 330 330 329 329 330 328 327 326 324 323 322 322 323 323 322 323 323 323 322 322 324 325 325 325 325 324 324 324 324 324 323 322 323 324 325 324
328 328 328 329 330 330 329 329 329 328 328 327 326 324 323 321 320 320 322 323 324 323 323 323 323 322 322 322 323 324 325 325 324 325 324 324 324 323 324 324 325 324
330 328 329 329 328 328 328 328 328 327 325 325 323 322 322 320 321 320 321 322 322 323 322 324 324 318 312 310 315 320 322 324 325 324 324 323 323 323 324 324 324 324
329 329 328 328 327 327 327 326 325 324 323 322 322 322 322 321 320 320 320 321 320 321 326 323 320 313 301 296 298 310 319 321 324 324 324 324 323 322 323 323 323 324
327 327 327 326 327 327 327 326 326 328 327 322 323 323 323 322 322 319 319 320 320 323 321 318 313 304 294 293 294 294 312 324 323 322 323 322 322 322 321 321 321 322
324 324 324 324 324 323 324 324 324 325 325 325 325 324 323 324 323 322 323 324 323 321 318 315 309 295 291 293 293 293 297 316 325 323 323 322 322 321 320 321 320 322
320 320 319 318 317 318 319 320 320 320 321 322 323 324 325 324 326 324 323 321 319 315 313 311 309 293 292 292 293 292 292 303 323 322 320 321 323 322 323 322 321 322
315 316 316 316 316 316 316 316 316 317 319 320 321 322 322 322 321 320 319 317 315 313 310 308 304 294 291 291 292 291 292 297 325 323 323 322 322 322 323 323 323 323
312 312 313 314 314 313 312 312 313 315 315 316 318 318 318 317 317 316 315 314 313 311 309 305 301 291 291 291 292 291 291 297 325 323 322 323 324 324 324 324 325 325
310 309 310 310 311 311 310 310 310 311 311 312 313 314 316 316 316 316 315 313 312 311 308 304 301 291 291 291 291 291 292 319 323 323 323 325 326 327 325 327 327 328
308 309 309 308 309 309 309 310 308 308 308 308 309 310 310 311 313 313 314 315 313 312 309 305 302 294 290 291 291 290 299 319 322 321 323 323 324 325 324 326 327 322
306 307 306 307 308 308 308 308 308 308 307 308 306 306 306 307 308 307 308 309 310 310 310 306 302 295 290 291 291 290 296 314 317 319 320 320 321 322 323 323 315 311
304 305 306 305 304 304 304 304 305 306 307 308 307 307 307 306 306 306 305 306 306 306 306 309 306 299 291 291 291 291 298 309 313 314 315 316 316 316 318 319 317 306
303 303 304 304 304 304 305 305 305 305 305 305 307 308 308 308 307 306 306 306 307 307 305 306 306 302 295 290 291 292 291 304 313 311 310 309 311 310 310 312 314 309
Wind_Speed
9 9 8 7 7 7 6 6 6 5 5 4 4 3 4 3 3 2 2 2 2 2 3 2 4 4 4 4 3 3 3 3 3 5 5 5 3 10 7 5 5 6
10 9 7 8 7 7 7 6 6 6 5 4 5 4 4 4 2 1 2 2 2 3 2 3 3 4 4 4 4 4 3 4 5 3 4 4 3 4 7 10 9 5
10 8 8 8 7 8 8 7 7 6 5 6 6 5 4 4 3 2 1 1 3 2 1 2 3 3 3 3 4 4 3 4 4 4 3 5 3 3 3 5 4 5
9 9 8 8 8 9 8 7 7 6 6 6 5 5 5 4 3 4 2 1 1 1 1 1 1 2 3 3 3 3 2 3 4 3 2 2 3 3 3 4 5 4
9 9 9 8 8 9 8 8 7 6 6 6 6 5 5 5 4 4 3 3 2 2 2 2 2 2 1 2 3 1 2 2 3 4 4 4 3 4 4 4 5 6
10 10 10 9 9 9 8 8 7 7 7 6 5 5 5 4 3 4 3 3 3 3 3 3 3 2 2 2 3 3 3 3 3 4 2 2 5 5 4 4 3 4
12 10 11 11 11 9 9 8 7 7 7 6 5 5 5 4 5 4 4 3 3 3 3 4 3 2 2 1 2 2 4 4 3 4 7 9 6 6 5 5 6 7
12 11 10 9 10 10 8 9 7 7 6 6 5 6 5 5 5 2 2 3 3 3 1 1 2 2 2 2 2 2 2 3 5 6 3 2 4 6 7 8 10 11
13 11 11 10 11 9 10 9 8 7 6 6 5 5 4 4 4 4 3 4 3 2 2 2 2 2 1 2 2 1 2 2 2 3 3 2 3 3 4 3 5 4
13 13 12 12 10 9 10 9 9 7 7 6 5 5 5 3 4 3 4 3 4 4 4 3 3 3 4 4 4 4 4 5 4 3 3 4 4 6 6 4 2 1
13 12 12 12 11 10 10 10 9 8 7 6 5 5 5 4 4 3 3 5 3 4 4 4 4 3 3 2 3 3 3 4 4 4 5 5 6 6 6 6 7 8
12 13 13 12 12 11 11 10 9 8 7 6 6 6 5 4 4 3 3 5 6 5 6 5 4 4 4 3 2 1 1 3 3 5 4 5 3 3 3 3 4 4
12 13 12 12 11 11 10 10 9 8 8 7 6 6 5 4 4 4 3 3 4 3 3 3 3 3 5 4 4 3 2 1 2 3 3 3 4 3 5 4 4 4
11 12 12 11 11 11 11 10 9 8 7 7 7 6 5 4 4 4 3 3 4 3 3 2 2 6 9 7 3 4 3 4 2 2 4 3 3 3 3 3 4 4
10 10 11 11 11 11 11 10 9 8 8 8 7 6 4 5 4 4 4 4 5 3 4 5 10 8 6 7 8 9 2 5 4 5 3 4 4 3 3 4 4 4
12 11 11 12 12 11 11 10 9 8 8 8 7 7 6 5 5 5 4 5 6 5 9 8 7 5 10 11 7 5 9 4 5 4 5 4 4 6 4 4 5 5
12 12 12 13 13 12 11 10 9 7 6 6 7 7 7 5 4 4 5 5 5 7 8 8 6 6 12 11 11 11 7 9 2 3 4 5 5 4 4 5 3 4
11 12 12 12 12 12 11 10 8 8 8 7 5 6 6 5 4 3 6 8 8 9 8 7 6 8 11 11 11 11 8 6 5 0 2 3 5 4 5 5 5 4
12 12 12 11 10 10 10 10 9 8 7 7 7 5 7 7 6 6 7 7 8 9 8 8 6 11 11 11 10 10 10 8 6 3 4 4 1 3 4 1 3 4
9 12 12 12 11 11 10 10 9 8 7 7 6 6 8 8 8 8 8 7 7 8 8 7 8 10 11 12 11 11 10 7 5 2 2 1 1 1 1 0 1 1
8 10 12 11 11 11 10 10 8 8 8 7 6 6 7 7 7 8 7 7 7 7 8 8 6 10 12 13 13 13 12 9 2 1 2 2 0 1 2 1 2 2
8 11 12 11 10 9 9 9 8 8 8 6 6 6 5 6 7 7 8 8 7 7 7 8 7 13 13 13 14 14 14 7 1 2 2 0 1 1 2 1 0 1
7 10 9 10 9 10 10 8 8 8 7 5 6 6 7 7 7 7 7 7 7 7 7 7 8 11 13 14 14 15 11 5 1 2 1 1 1 1 2 1 3 5
9 8 8 10 9 9 9 8 7 7 7 5 6 6 7 6 7 7 7 7 8 8 6 7 7 10 13 13 14 15 12 6 4 2 0 2 1 1 3 2 8 10
9 9 9 10 10 8 8 8 7 6 6 5 6 6 7 6 6 6 7 7 7 7 8 6 7 8 12 12 13 14 11 7 5 3 2 3 4 4 1 1 8 10
10 10 10 9 9 7 7 7 6 6 7 6 6 5 5 5 4 5 6 6 5 6 6 6 6 7 8 10 12 13 14 8 5 5 5 5 4 5 5 5 2 9
Wind_Direction
198 173 176 159 158 151 156 145 138 142 129 127 124 125 120 104 128 142 124 136 151 194 185 186 189 185 197 191 178 226 187 186 229 165 200 179 209 140 169 186 198 199
180 168 167 158 147 152 142 135 133 130 123 120 115 105 101 120 121 135 141 186 186 178 185 177 193 190 182 189 177 200 175 180 207 196 180 183 176 164 163 174 205 176
167 167 159 156 146 137 133 129 129 129 127 111 108 117 120 124 142 115 112 264 227 156 161 172 194 193 185 188 182 199 188 175 201 184 197 175 207 175 175 157 155 169
165 160 160 145 138 136 135 133 129 126 127 135 133 130 140 139 137 133 124 181 265 109 161 203 186 202 200 188 180 206 194 186 179 181 152 312 183 193 154 149 132 178
161 158 153 140 141 140 138 137 138 137 139 123 125 138 136 136 145 142 148 137 132 174 190 190 202 189 214 195 215 140 199 180 166 189 183 185 158 178 154 160 147 170
166 157 152 156 152 145 141 139 137 135 128 131 131 128 122 137 144 133 151 150 159 171 189 206 206 209 209 217 228 185 174 192 184 210 219 182 195 161 173 165 164 187
161 155 154 158 151 148 143 139 137 136 134 132 136 126 133 155 150 163 158 173 175 187 195 190 202 205 218 243 223 230 169 167 232 226 196 197 189 166 190 157 215 203
156 151 155 150 150 148 146 143 147 140 137 137 133 129 160 152 147 145 151 174 188 170 171 282 172 185 227 222 229 194 210 189 190 207 222 174 182 180 186 175 184 184
158 156 158 156 154 159 154 151 150 142 145 141 141 142 155 159 131 172 180 177 156 126 145 140 183 155 147 197 189 188 192 211 201 195 201 155 178 177 180 197 146 205
163 164 164 160 160 159 157 151 151 149 146 155 147 156 153 137 132 178 163 154 133 148 127 126 139 150 157 180 176 174 181 171 178 163 167 163 175 175 156 160 141 242
168 166 161 160 159 159 158 154 153 154 151 161 150 156 138 143 162 147 173 151 149 148 143 143 140 160 160 167 145 183 177 153 171 154 158 178 183 203 154 150 153 169
175 165 163 161 161 159 159 156 157 153 150 153 158 150 140 170 152 173 173 153 178 189 185 142 171 145 158 157 166 266 164 166 144 140 176 194 129 155 116 120 160 168
166 164 162 162 157 153 156 159 156 147 151 155 151 139 153 156 160 150 191 153 180 166 141 164 147 171 163 149 164 188 229 99 129 148 154 119 178 224 155 159 196 149
163 160 157 154 152 151 157 157 148 151 153 142 136 140 151 151 150 157 156 194 119 172 103 90 66 31 24 15 347 182 171 200 204 215 166 151 170 166 159 177 194 156
139 144 145 146 146 151 151 150 149 150 148 137 136 139 138 131 146 144 166 133 124 120 134 71 44 32 26 3 3 347 228 180 212 208 227 186 198 200 182 215 191 191
133 131 136 137 139 137 137 140 139 132 132 136 134 130 131 131 136 145 147 147 152 121 64 53 43 39 360 2 5 347 348 300 168 206 211 212 211 206 197 213 205 142
127 125 125 126 125 124 118 105 86 72 81 111 121 120 115 122 132 141 150 155 130 88 73 62 46 15 353 1 353 7 355 347 355 184 210 209 211 216 192 194 212 179
117 116 112 110 113 112 106 103 99 95 90 80 76 108 115 117 128 123 87 78 84 86 78 72 59 9 3 360 2 359 7 337 321 295 229 214 212 203 198 189 194 183
117 114 107 98 96 97 98 100 104 101 94 87 76 75 102 103 96 104 111 91 89 88 82 69 63 25 1 9 3 357 349 336 296 216 188 204 264 255 330 265 180 165
88 100 101 102 98 93 91 89 90 92 93 91 85 68 80 95 101 98 99 97 94 94 85 70 55 9 8 9 7 354 347 334 297 26 346 27 186 299 108 232 91 247
66 74 83 85 84 82 82 85 86 88 88 91 96 99 98 100 104 101 98 100 95 89 87 73 44 9 16 13 8 357 341 321 288 289 242 188 149 116 263 31 331 337
56 76 75 73 77 79 81 80 81 84 87 85 86 89 92 102 104 108 108 105 101 94 91 73 46 22 16 16 10 2 338 291 223 212 226 308 146 133 259 156 32 6
49 70 80 91 83 81 80 83 89 87 81 74 77 82 89 89 89 87 87 94 97 98 86 72 52 22 19 16 12 4 355 343 326 248 166 186 172 345 261 171 79 39
40 54 62 67 69 72 80 77 71 67 66 70 88 91 87 87 89 83 80 73 69 63 62 81 62 38 24 19 12 7 352 343 326 332 84 321 264 162 314 65 77 52
41 38 48 57 61 54 56 62 61 61 59 56 70 79 78 86 89 93 90 83 78 76 23 55 80 57 33 21 12 12 4 346 345 354 355 24 353 324 5 346 104 60
49 44 47 54 63 64 57 54 49 56 60 57 54 70 84 77 80 82 82 77 66 58 56 42 58 67 49 28 15 9 7 352 355 14 15 9 348 351 336 313 99 106